EHI
0 0 0 0 0 0 0 0 0 0 0 0 0 0 0 0 0 0 0 0 0 0 0 0 0 0 0 0 0 0 0 0 0 0 0 0 0 0 0 0 0 0 0 0 0 0 0 0 0
0 0 0 0 0 0 0 0 0 0 0 0 0 0 0 0 0 0 0 0 0 0 0 0 0 0 0 0 0 0 0 0 0 0 0 0 0 0 0 0 0 0 0 0 0 0 0 0 0
0 0 0 0 0 0 0 0 0 0 0 0 0 0 0 0 0 0 0 0 0 0 0 0 0 0 0 0 0 0 0 0 0 0 0 0 0 0 0 0 0 0 0 0 0 0 0 0 0
0 0 0 0 0 0 0 0 0 0 0 0 0 0 0 0 0 0 0 0 0 0 0 0 0 0 0 0 0 0 0 0 0 0 0 0 0 0 0 0 0 0 0 0 0 0 0 0 0
0 0 0 0 0 0 0 0 0 0 0 0 0 0 0 0 0 0 0 0 0 0 0 0 0 0 0 0 0 0 0 0 0 0 0 0 0 0 0 0 0 0 0 0 0 0 0 0 0
0 0 0 0 0 0 0 0 0 0 0 0 0 0 0 0 0 0 0 0 0 0 0 0 0 0 0 0 0 0 0 0 0 0 0 0 0 0 0 0 0 0 0 0 0 0 0 0 0
0 0 0 0 0 0 0 0 0 0 0 0 0 0 0 0 0 0 0 0 0 0 0 0 0 0 0 0 0 0 0 0 0 0 0 0 0 0 0 0 0 0 0 0 0 0 0 0 0
0 0 0 0 0 0 0 0 0 0 0 0 0 0 0 0 0 0 0 0 0 0 0 0 0 0 0 0 0 0 0 0 0 0 0 0 0 0 0 0 0 0 0 0 0 0 0 0 0
0 0 0 0 0 0 0 0 0 0 0 0 0 0 0 0 0 0 0 0 0 0 0 0 0 0 0 0 0 0 0 0 0 0 0 0 0 0 0 0 0 0 0 0 0 0 0 0 0
0 0 0 0 0 0 0 0 0 0 0 0 0 0 0 0 0 0 0 0 0 0 0 0 0 0 0 0 0 0 0 0 0 0 0 0 0 0 0 0 0 0 0 0 0 0 0 0 0
0 0 0 0 0 0 0 0 0 0 0 0 0 0 0 0 0 0 0 0 0 0 0 0 0 0 0 0 0 0 0 0 0 0 0 0 0 0 0 0 0 0 0 0 0 0 0 0 0
0 0 0 0 0 0 0 0 0 0 0 0 0 0 0 0 0 0 0 0 0 0 0 0 0 0 0 0 0 0 0 0 0 0 0 0 0 0 0 0 0 0 0 0 0 0 0 0 0
0 0 0 0 0 0 0 0 0 0 0 0 0 0 0 0 0 0 0 0 0 0 0 0 0 0 0 0 0 0 0 0 0 0 0 0 0 0 0 0 0 0 0 0 0 0 0 0 0
0 0 0 0 0 0 0 0 0 0 0 0 0 0 0 0 0 0 0 0 0 0 0 0 0 0 0 0 0 0 0 0 0 0 0 0 0 0 0 0 0 0 0 0 0 0 0 0 0
0 0 0 0 0 0 0 0 0 0 0 0 0 0 0 0 0 0 0 0 0 0 0 0 0 0 0 0 0 0 0 0 0 0 0 0 0 0 0 0 0 0 0 0 0 0 0 0 0
0 0 0 0 0 0 0 0 0 0 0 0 0 0 0 0 0 0 0 0 0 0 0 0 0 0 0 0 0 0 0 0 0 0 0 0 0 0 0 0 0 0 0 0 0 0 0 0 0
0 0 0 0 0 0 0 0 0 0 0 0 0 0 0 0 0 0 0 0 0 0 0 0 0 0 0 0 0 0 0 0 0 0 0 0 0 0 0 0 0 0 0 0 0 0 0 0 0
0 0 0 0 0 0 0 0 0 0 0 0 0 0 0 0 0 0 0 0 0 0 0 0 0 0 0 0 0 0 0 0 0 0 0 0 0 0 0 0 0 0 0 0 0 0 0 0 0
0 0 0 0 0 0 0 0 0 0 0 0 0 0 0 0 0 0 0 0 0 0 0 0 0 0 0 0 0 0 0 0 0 0 0 0 0 0 0 0 0 0 0 0 0 0 0 0 0
0 0 0 0 0 0 0 0 0 0 0 0 0 0 0 0 0 0 0 0 0 0 0 0 0 0 0 0 0 0 0 0 0 0 0 0 0 0 0 0 0 0 0 0 0 0 0 0 0
0 0 0 0 0 0 0 0 0 0 0 0 0 0 0 0 0 0 0 0 0 0 0 0 0 0 0 0 0 0 0 0 0 0 0 0 0 0 0 0 0 0 0 0 0 0 0 0 0
0 0 0 0 0 0 0 0 0 0 0 0 0 0 0 0 0 0 0 0 0 0 0 0 0 0 0 0 0 0 0 0 0 0 0 0 0 0 0 0 0 0 0 0 0 0 0 0 0
0 0 0 0 0 0 0 0 0 0 0 0 0 0 0 0 0 0 0 0 0 0 0 0 0 0 0 0 0 0 0 0 0 0 0 0 0 0 0 0 0 0 0 0 0 0 0 0 0
0 0 0 0 0 0 0 0 0 0 0 0 0 0 0 0 0 0 0 0 0 0 0 0 0 0 0 0 0 0 0 0 0 0 0 0 0 0 0 0 0 0 0 0 0 0 0 0 0
0 0 0 0 0 0 0 0 0 0 0 0 0 0 0 0 0 0 0 0 0 0 0 0 0 0 0 0 0 0 0 0 0 0 0 0 0 0 0 0 0 0 0 0 0 0 0 0 0
0 0 0 0 0 0 0 0 0 0 0 0 0 0 0 0 0 0 0 0 0 0 0 0 0 0 0 0 0 0 0 0 0 0 0 0 0 0 0 0 0 0 0 0 0 0 0 0 0
0 0 0 0 0 0 0 0 0 0 0 0 0 0 0 0 0 0 0 0 0 0 0 0 0 0 0 0 0 0 0 0 0 0 0 0 0 0 0 0 0 0 0 0 0 0 0 0 0
0 0 0 0 0 0 0 0 0 0 0 0 0 0 0 0 0 0 0 0 0 0 0 0 0 0 0 0 0 0 0 0 0 0 0 0 0 0 0 0 0 0 0 0 0 0 0 0 0
0 0 0 0 0 0 0 0 0 0 0 0 0 0 0 0 0 0 0 0 0 0 0 0 0 0 0 0 0 0 0 0 0 0 0 0 0 0 0 0 0 0 0 0 0 0 0 0 0
0 0 0 0 0 0 0 0 0 0 0 0 0 0 0 0 0 0 0 0 0 0 0 0 0 0 0 0 0 0 0 0 0 0 0 0 0 0 0 0 0 0 0 0 0 0 0 0 0
Wind_Speed
9 6 4 6 10 12 9 6 4 6 5 5 8 10 9 8 8 8 2 10 11 12 14 18 27 27 27 27 27 27 27 27 27 28 28 28 27 27 26 26 26 26 25 23 21 19 17 15 15
4 5 8 9 10 8 6 4 7 5 10 8 7 7 8 7 4 4 6 10 13 15 15 17 26 27 27 27 27 27 27 27 27 27 27 28 28 27 27 27 26 26 26 25 24 22 20 18 16
2 8 10 9 8 5 4 2 7 11 9 5 6 5 6 5 4 5 6 11 14 14 14 18 27 27 27 27 27 27 27 27 27 27 27 27 27 27 27 27 27 26 26 25 25 25 23 21 19
6 9 10 11 12 5 4 4 3 4 8 8 6 7 6 6 5 6 8 12 13 11 12 17 28 28 27 27 28 28 27 28 28 28 28 27 28 28 27 27 27 27 26 26 25 25 25 24 22
7 9 11 8 6 3 4 9 9 8 6 6 6 8 6 7 7 8 10 13 12 10 12 17 27 28 28 27 28 27 27 28 28 28 28 28 28 28 28 28 28 27 27 27 26 25 26 25 25
8 8 9 6 5 3 3 5 4 8 5 4 6 7 6 6 8 8 10 10 10 10 11 15 25 28 28 27 28 28 27 28 28 28 28 27 28 28 28 29 29 28 27 27 26 26 27 26 25
9 8 7 7 5 3 2 3 5 4 6 5 3 7 5 7 6 7 9 9 8 9 11 13 14 18 24 26 27 27 27 28 28 28 28 27 27 28 28 29 29 28 28 27 27 27 27 27 25
7 9 7 5 5 3 2 4 4 5 4 4 5 7 5 3 5 7 8 8 8 9 10 12 11 14 14 14 23 27 27 28 28 28 28 27 25 25 26 26 28 28 28 27 27 28 27 27 25
7 9 4 3 7 6 5 5 5 6 10 9 8 8 6 5 7 9 8 8 10 13 10 11 12 14 14 13 18 19 21 24 23 20 25 21 12 13 16 23 28 28 28 28 28 28 27 26 23
9 7 2 1 6 8 6 6 7 5 8 8 7 7 7 8 8 9 10 10 11 12 12 11 12 14 13 12 10 7 10 11 12 12 12 10 10 12 17 23 26 27 27 26 27 28 24 19 13
8 7 4 7 8 8 6 5 4 8 5 5 8 6 6 8 7 7 7 6 7 7 11 11 10 11 10 9 8 5 6 7 9 11 12 9 8 9 10 9 12 14 17 12 17 16 12 12 12
9 7 5 5 5 6 5 5 5 3 7 8 9 8 7 7 6 5 6 6 6 7 8 8 7 8 8 7 7 6 7 7 8 10 11 9 7 8 9 8 10 10 9 10 11 10 13 14 14
7 5 5 8 13 10 10 7 7 6 9 9 10 9 8 6 5 5 5 6 5 6 7 7 7 9 9 8 8 9 8 9 9 9 9 11 8 8 8 8 9 10 9 11 11 11 13 14 14
7 9 8 7 8 4 10 6 6 7 8 8 9 7 7 6 5 5 5 5 5 5 7 8 7 10 9 9 8 7 7 8 8 8 10 11 9 8 9 9 8 9 10 10 10 12 11 11 12
7 8 4 3 4 4 7 3 3 8 8 8 7 7 6 5 5 5 4 4 4 4 5 8 9 9 8 8 9 8 7 8 7 8 9 11 11 9 9 9 8 9 10 11 11 11 10 11 11
5 5 3 4 6 6 4 3 5 7 9 8 6 6 6 4 5 5 5 4 4 4 5 7 10 9 8 7 7 6 6 6 6 7 7 10 12 11 9 8 8 9 9 9 11 10 11 11 11
2 1 3 4 6 6 5 5 7 6 8 7 7 6 6 5 4 4 4 4 4 4 5 6 7 8 7 7 6 6 5 6 6 6 6 10 11 12 10 7 7 10 8 8 11 11 11 12 12
2 4 3 5 6 6 4 4 6 6 7 7 6 6 6 5 5 4 4 3 3 4 5 6 6 7 7 5 5 4 5 5 5 5 7 10 10 12 10 7 9 10 9 9 10 12 12 11 12
2 2 3 4 2 3 5 6 8 6 6 6 6 6 6 5 4 4 2 2 3 6 6 6 6 7 6 6 7 8 8 8 7 7 9 10 11 12 10 9 9 9 9 10 12 12 13 11 11
3 4 2 2 1 2 2 5 6 5 6 7 7 7 6 5 4 3 1 3 5 4 5 5 6 6 6 5 5 5 6 5 6 6 7 9 11 11 11 10 9 9 9 10 11 12 10 11 10
4 2 2 3 2 1 0 1 4 3 3 4 4 5 5 6 5 2 1 3 2 3 4 6 6 6 6 7 5 7 4 4 5 6 6 8 10 10 10 10 9 9 8 9 11 11 12 12 11
0 2 2 2 2 3 1 5 5 6 4 4 4 4 4 4 4 2 1 1 1 2 3 5 6 6 6 6 6 9 9 8 8 6 7 9 9 9 10 11 10 9 9 9 11 11 11 12 11
3 2 2 1 1 1 1 2 5 4 6 6 5 5 5 5 4 2 1 1 1 3 4 5 5 5 6 6 7 7 7 6 7 8 9 8 7 8 10 11 9 10 9 10 11 11 11 10 11
2 3 2 4 3 3 4 5 6 6 7 6 5 5 5 5 3 2 1 2 3 4 5 5 6 6 6 7 7 8 9 9 11 11 9 8 7 6 9 12 9 9 9 10 11 10 12 11 12
6 6 6 6 4 5 2 4 7 3 4 7 8 7 6 5 3 1 3 4 5 6 6 6 6 6 7 7 7 8 8 8 10 11 10 11 9 8 10 11 9 9 9 11 10 11 11 12 13
3 3 3 3 5 7 4 5 4 4 3 5 7 7 5 4 2 3 3 4 5 6 6 6 7 7 7 8 8 7 7 7 7 9 10 11 10 10 10 11 11 11 11 12 10 10 11 11 11
1 2 4 4 2 5 7 6 4 3 4 5 6 5 5 4 3 3 4 4 5 6 6 6 7 7 8 8 8 7 8 8 9 9 9 8 10 11 12 13 12 11 11 11 11 9 11 12 11
1 4 4 2 2 6 8 7 5 9 11 7 6 6 4 3 3 3 4 4 4 5 5 6 6 7 8 8 8 11 9 10 10 10 11 11 12 12 13 13 12 12 12 11 10 11 11 12 12
1 2 3 3 3 3 6 10 4 10 10 9 7 6 6 4 3 2 3 4 4 5 5 6 7 8 8 9 8 9 10 10 10 10 11 11 11 12 13 13 13 14 13 12 11 12 13 13 13
2 3 4 2 3 4 4 11 1 5 7 8 8 6 6 4 3 1 2 4 5 6 6 7 8 8 9 9 9 10 10 10 10 11 11 11 12 12 13 13 14 15 14 13 13 13 13 13 13
Wind_Direction
333 349 54 56 60 60 57 15 40 120 73 55 63 77 85 67 79 109 307 350 3 9 2 358 11 11 11 14 15 16 17 17 17 17 15 14 12 12 11 9 6 3 359 353 345 335 323 314 308
343 31 49 54 66 67 54 9 52 86 140 136 80 74 74 74 60 71 12 11 24 21 9 2 13 11 11 13 14 14 15 15 14 15 14 12 11 9 8 7 5 2 359 356 352 345 335 322 309
56 57 61 59 64 81 92 32 91 77 86 96 85 56 62 54 42 53 23 31 33 23 10 1 14 12 11 13 14 12 13 13 12 12 11 10 9 7 6 5 1 359 357 355 352 349 344 335 322
76 53 61 66 74 42 39 318 247 100 65 47 93 64 60 27 50 58 43 42 35 22 11 5 15 13 11 12 13 11 12 11 10 9 8 7 7 5 3 3 359 357 355 353 351 349 348 344 334
64 69 72 66 72 64 27 14 44 52 63 36 75 87 61 19 61 58 49 43 34 22 16 11 14 13 11 11 13 11 11 10 9 8 7 6 5 2 1 1 357 354 353 351 350 350 348 345 341
65 66 80 91 107 114 48 25 50 51 75 66 82 97 65 16 52 48 48 41 33 24 19 15 13 13 10 9 11 10 10 10 9 7 6 6 5 1 360 359 354 352 351 349 349 349 347 344 342
87 78 88 112 120 108 119 74 47 50 54 28 79 93 91 29 46 53 48 37 30 26 21 15 12 10 7 6 9 8 9 8 7 6 5 6 4 1 360 357 352 351 350 349 349 348 345 342 340
96 93 91 112 133 154 116 76 69 51 58 28 62 97 94 51 50 49 43 35 28 27 23 15 11 8 3 357 6 7 7 6 6 4 4 6 4 0 359 354 351 350 349 350 348 347 344 343 340
66 75 95 148 157 152 136 100 66 47 69 58 59 85 109 85 55 46 36 30 28 24 19 15 14 9 2 358 2 3 4 3 3 1 2 4 358 353 358 351 350 349 347 349 346 345 345 343 338
56 89 106 335 142 132 116 104 122 94 75 75 78 80 81 66 55 47 36 25 21 18 14 16 16 7 0 357 352 355 358 355 354 354 357 359 357 354 358 349 349 347 345 347 344 344 345 342 334
62 97 94 62 88 100 99 87 96 120 93 128 127 116 90 76 64 58 46 36 26 18 14 10 15 2 355 352 348 360 354 352 351 353 358 357 354 352 353 346 345 341 342 342 340 339 338 336 332
79 58 81 98 78 78 89 97 80 97 139 146 136 131 115 95 81 74 60 45 34 25 9 357 12 2 355 353 347 1 356 353 353 350 355 359 355 353 350 346 340 339 337 337 336 331 330 333 329
76 84 52 77 75 77 87 89 104 121 141 138 128 121 122 121 111 90 77 62 46 26 5 357 13 10 2 3 356 2 356 354 348 348 354 358 354 352 348 344 339 336 338 336 330 328 328 330 327
97 95 97 87 86 90 109 114 115 163 154 136 130 131 137 134 127 98 74 61 44 26 11 0 15 11 1 3 356 355 352 349 346 347 351 355 351 349 346 340 336 338 337 331 327 322 325 324 322
94 87 89 123 109 133 121 84 166 169 153 144 144 146 146 136 120 108 99 81 53 33 19 10 12 8 357 358 354 352 345 345 345 347 349 352 350 348 344 336 337 339 334 330 328 321 324 319 320
96 100 127 198 158 176 141 186 207 175 152 159 160 156 152 139 124 122 109 96 65 40 29 18 9 1 353 351 344 337 338 340 341 343 347 348 349 347 341 334 338 336 334 333 328 328 325 320 317
112 146 194 195 195 180 181 196 214 186 159 164 170 169 161 147 132 128 110 96 70 46 32 17 1 354 347 341 335 326 329 334 335 338 345 347 347 345 340 332 337 337 335 332 330 330 324 320 317
221 216 191 208 206 177 184 192 199 193 161 164 170 170 165 156 153 142 109 95 70 42 32 15 355 348 342 338 336 333 339 338 338 339 345 347 344 343 338 337 337 337 335 333 329 326 324 318 316
232 145 173 216 211 195 199 185 200 193 154 161 174 169 161 154 137 128 117 99 49 31 16 4 351 344 348 349 351 347 345 341 341 342 343 343 342 340 336 341 334 335 333 329 327 327 322 321 318
73 107 149 233 240 227 199 203 203 197 179 179 176 168 163 146 136 148 126 57 41 15 350 353 350 345 346 342 333 329 323 320 328 325 328 334 337 336 340 337 332 331 329 326 328 325 323 320 323
53 98 200 220 207 249 186 245 187 217 178 180 154 149 152 146 149 157 85 58 20 343 340 360 348 343 341 336 334 335 321 314 327 326 330 332 331 330 329 329 327 327 326 324 324 321 326 318 313
235 215 220 160 142 286 167 294 215 200 203 195 164 143 137 133 142 139 94 88 310 320 338 350 343 338 336 338 344 344 344 334 329 324 320 321 322 323 327 326 324 325 323 321 320 325 316 314 311
261 243 225 168 171 318 263 246 278 170 214 213 187 165 153 152 150 135 141 170 353 348 349 344 337 332 332 337 337 334 329 320 320 323 320 317 316 318 324 323 323 323 321 318 316 317 315 313 307
311 39 69 60 76 302 216 183 259 204 212 185 173 166 161 161 150 137 113 41 6 355 347 341 336 328 331 334 332 328 326 324 327 328 325 325 320 317 319 322 321 319 318 317 315 315 312 309 306
39 53 18 353 355 272 204 196 253 214 200 169 168 172 169 164 154 97 41 15 355 349 342 337 336 332 334 335 331 326 326 323 323 326 327 327 326 324 317 321 317 316 315 314 314 313 309 307 305
359 103 123 266 271 292 313 249 259 213 195 151 149 156 159 154 118 66 43 12 349 346 342 339 339 337 337 336 331 325 325 323 321 321 322 323 322 319 314 318 314 312 313 315 311 308 306 305 304
82 117 160 154 288 284 284 282 288 214 210 166 155 155 156 136 89 62 32 9 356 346 342 339 341 340 338 335 328 326 326 319 316 315 316 318 319 319 321 315 311 310 310 308 308 304 304 304 301
149 147 95 121 300 294 292 281 248 205 213 195 179 172 157 134 93 59 22 1 348 339 336 340 344 338 331 329 325 337 323 317 316 318 320 320 318 317 315 314 312 310 310 306 305 304 302 302 300
177 190 147 139 176 219 288 276 232 196 189 185 183 171 162 154 113 52 5 346 338 338 342 344 343 338 332 327 320 322 320 319 319 319 319 318 315 316 316 317 314 312 309 307 305 302 301 300 301
237 212 157 178 258 210 245 275 68 158 159 156 157 157 157 142 116 65 349 339 340 345 346 347 342 336 329 326 326 327 324 323 322 321 319 318 316 317 319 319 316 313 312 308 303 299 299 297 298